Massena, NY

11:30 AM EDT on April 27, 2017 (GMT -0400)
Massena International-Richards

Weather History for KMSS - September, 2012

Change the Weather History Date:

Saturday, September 22, 2012

  Actual Average Record
Temperature  
Mean Temperature 62 °F 56 °F  
Max Temperature 70 °F 67 °F 88 °F (1965)
Min Temperature 54 °F 45 °F 31 °F (1950)
Degree Days  
Heating Degree Days 3 9  
Month to date heating degree days 98 133  
Since 1 July heating degree days 121 208  
Cooling Degree Days 0 0  
Month to date cooling degree days 32 24  
Year to date cooling degree days 537 360  
Growing Degree Days 13 (Base 50)    
Moisture  
Dew Point 56 °F    
Average Humidity 83    
Maximum Humidity 100    
Minimum Humidity 66    
Precipitation  
Precipitation 0.02 in 0.13 in 1.02 in (1992)
Month to date precipitation 4.22 2.63  
Year to date precipitation 21.94 25.17  
Sea Level Pressure  
Sea Level Pressure 29.76 in    
Wind  
Wind Speed 8 mph (SSW)    
Max Wind Speed 24 mph    
Max Gust Speed 33 mph    
Visibility 10 miles    
Events Rain    
T = Trace of Precipitation, MM = Missing Value Source: NWS Daily Summary

Daily Weather History Graph

Daily Weather History Graph

Search for Another Location

Airport or City:

Trip Planner

Search our weather history database for the weather conditions in past years. The results will help you decide how hot, cold, wet, or windy it might be!

Date:

Astronomy

Sep. 22, 2012 Rise Set
Actual Time 6:47 AM EDT 6:56 PM EDT
Civil Twilight 6:17 AM EDT 7:25 PM EDT
Nautical Twilight 5:43 AM EDT 7:59 PM EDT
Astronomical Twilight 5:08 AM EDT 8:34 PM EDT
Moon 2:18 PM EDT (9/22) 11:43 PM EDT (9/22)
Length of Visible Light 13h 07m
Length of Day
12h 08m
Waxing Crescent, 48% of the Moon is Illuminated
Sep 22
Waxing Crescent
Sep 22
First Quarter
Sep 29
Full
Oct 8
Last Quarter
Oct 15
New

Hourly Weather History & Observations

Time (EDT) Temp. Dew Point Humidity Pressure Visibility Wind Dir Wind Speed Gust Speed Precip Events Conditions
12:53 AM 59.0 °F 57.0 °F 93% 29.90 in 10.0 mi SE 5.8 mph - 0.03 in   Overcast
1:53 AM 57.9 °F 57.0 °F 97% 29.90 in 10.0 mi West 3.5 mph - N/A   Overcast
2:53 AM 57.9 °F 57.0 °F 97% 29.86 in 8.0 mi Calm Calm - N/A   Overcast
3:53 AM 60.1 °F 57.9 °F 93% 29.81 in 10.0 mi East 5.8 mph - 0.01 in Rain Light Rain
4:53 AM 59.0 °F 57.9 °F 96% 29.77 in 10.0 mi East 4.6 mph - 0.00 in   Scattered Clouds
5:53 AM 59.0 °F 57.9 °F 96% 29.75 in 10.0 mi ESE 4.6 mph - N/A   Overcast
6:53 AM 61.0 °F 57.0 °F 87% 29.72 in 10.0 mi SE 9.2 mph - N/A   Mostly Cloudy
7:53 AM 63.0 °F 55.9 °F 78% 29.67 in 10.0 mi SSE 18.4 mph 25.3 mph N/A   Clear
8:53 AM 66.0 °F 57.0 °F 73% 29.66 in 10.0 mi SSE 16.1 mph 23.0 mph N/A   Clear
9:53 AM 69.1 °F 57.9 °F 68% 29.66 in 10.0 mi South 12.7 mph 24.2 mph N/A   Overcast
10:53 AM 64.9 °F 57.0 °F 75% 29.69 in 10.0 mi SW 17.3 mph 28.8 mph 0.00 in   Overcast
11:53 AM 63.0 °F 60.1 °F 90% 29.71 in 10.0 mi WSW 11.5 mph 21.9 mph 0.00 in Rain Light Rain
12:04 PM 62.6 °F 59.0 °F 88% 29.71 in 10.0 mi WSW 9.2 mph - 0.00 in Rain Light Rain
12:12 PM 62.6 °F 59.0 °F 88% 29.71 in 10.0 mi WSW 12.7 mph 18.4 mph 0.00 in Rain Light Rain
12:28 PM 62.6 °F 57.2 °F 82% 29.72 in 10.0 mi WSW 8.1 mph - 0.00 in Rain Light Rain
12:53 PM 62.1 °F 55.9 °F 80% 29.74 in 10.0 mi SW 9.2 mph - 0.00 in Rain Light Rain
1:53 PM 62.1 °F 57.0 °F 84% 29.73 in 10.0 mi SW 10.4 mph - 0.01 in Rain Light Rain
2:38 PM 62.6 °F 57.2 °F 82% 29.73 in 10.0 mi SW 6.9 mph - 0.00 in   Overcast
2:53 PM 64.0 °F 57.0 °F 78% 29.74 in 10.0 mi SSW 8.1 mph - 0.00 in   Mostly Cloudy
3:14 PM 62.6 °F 55.4 °F 77% 29.74 in 10.0 mi South 8.1 mph - N/A   Mostly Cloudy
3:53 PM 63.0 °F 55.9 °F 78% 29.74 in 10.0 mi South 5.8 mph - N/A   Overcast
4:37 PM 62.6 °F 57.2 °F 82% 29.74 in 10.0 mi Calm Calm - 0.00 in   Overcast
4:53 PM 62.1 °F 57.9 °F 86% 29.75 in 10.0 mi Calm Calm - 0.00 in   Overcast
5:53 PM 61.0 °F 57.0 °F 87% 29.76 in 10.0 mi SSW 5.8 mph - 0.00 in   Overcast
6:53 PM 60.1 °F 54.0 °F 80% 29.78 in 10.0 mi SSW 11.5 mph - N/A   Overcast
7:53 PM 57.0 °F 54.0 °F 89% 29.79 in 10.0 mi South 5.8 mph - 0.00 in   Clear
8:53 PM 57.0 °F 54.0 °F 89% 29.79 in 10.0 mi SSW 8.1 mph - N/A   Clear
9:53 PM 57.9 °F 52.0 °F 81% 29.80 in 10.0 mi SW 10.4 mph - N/A   Clear
10:53 PM 57.0 °F 48.9 °F 74% 29.81 in 10.0 mi SW 8.1 mph - N/A   Clear
11:53 PM 55.0 °F 48.9 °F 80% 29.82 in 10.0 mi WSW 5.8 mph - N/A   Mostly Cloudy